カタログに戻る

STARLINK-35506

運用中通信VLEO
NORAD 66324·PAYLOAD·🇺🇸 United States

打ち上げ Nov 6, 2025 から Cape Canaveral Space Force Station

Loading…

次のパス (今後24時間)

TLE

最新Source: CelesTrak SupGP

元期: Sep 15, 2026, 03:22 UTC

1 66324C 25253F   26258.14076389 -.00024449  00000+0 -88574-3 0  2586
2 66324  43.0020 222.2535 0000720 259.1166  57.8616 15.27583571    10

AllMySatでSTARLINK-35506をリアルタイム追跡

Download on the App Store